GW5381 Weather Reports


Display with metric or nautical units.
time (UTC)temp
F
wind
direction
speed
MPH
gust
MPH
rain 1hr
in
rain 24hr
in
rain mn
in
humidity
%
barometer
mb
20260503201755 64 156 1.0 7.0 0.00 0.00 0.00 33 1016.2
20260503201253 64 141 3.0 7.0 0.00 0.00 0.00 35 1016.4
20260503200750 64 121 1.0 4.0 0.00 0.00 0.00 35 1016.3
20260503200245 63 128 1.0 4.0 0.00 0.00 0.00 33 1016.4
20260503195743 62 277 2.0 8.0 0.00 0.00 0.00 36 1016.6
20260503195239 61 62 3.0 4.0 0.00 0.00 0.00 35 1016.5
20260503194737 61 106 1.0 3.0 0.00 0.00 0.00 34 1016.9
20260503194232 62 90 2.0 14.0 0.00 0.00 0.00 36 1016.8
20260503193729 63 81 4.0 7.0 0.00 0.00 0.00 35 1016.9
20260503193225 63 111 1.0 4.0 0.00 0.00 0.00 35 1017.1
20260503192721 63 97 2.0 2.0 0.00 0.00 0.00 32 1017.3
20260503192216 65 333 4.0 10.0 0.00 0.00 0.00 32 1017.3
20260503191713 64 342 3.0 6.0 0.00 0.00 0.00 35 1017.3
20260503191211 65 264 5.0 6.0 0.00 0.00 0.00 31 1017.5
20260503190707 65 221 0.0 3.0 0.00 0.00 0.00 38 1017.7
20260503190204 65 108 0.0 4.0 0.00 0.00 0.00 35 1017.5
20260503185701 64 103 2.0 7.0 0.00 0.00 0.00 35 1017.5
20260503185156 64 269 1.0 6.0 0.00 0.00 0.00 37 1017.7
20260503184651 62 131 1.0 3.0 0.00 0.00 0.00 36 1017.9
20260503184147 62 119 2.0 3.0 0.00 0.00 0.00 35 1018.0
20260503183643 62 110 2.0 2.0 0.00 0.00 0.00 35 1018.1
20260503183141 62 291 3.0 7.0 0.00 0.00 0.00 34 1018.2
20260503182640 62 112 1.0 2.0 0.00 0.00 0.00 36 1018.0
20260503182139 62 332 2.0 9.0 0.00 0.00 0.00 36 1018.2
20260503181635 64 213 2.0 2.0 0.00 0.00 0.00 35 1018.3
20260503181131 63 72 2.0 8.0 0.00 0.00 0.00 35 1018.5
20260503180628 64 110 3.0 8.0 0.00 0.00 0.00 33 1018.5
20260503180126 63 135 5.0 7.0 0.00 0.00 0.00 34 1018.5
20260503175623 63 90 1.0 3.0 0.00 0.00 0.00 36 1018.4
20260503175120 62 117 1.0 7.0 0.00 0.00 0.00 38 1018.5
20260503174616 63 292 5.0 11.0 0.00 0.00 0.00 36 1018.7
20260503174114 62 85 0.0 4.0 0.00 0.00 0.00 39 1018.8
20260503173609 63 115 1.0 3.0 0.00 0.00 0.00 37 1018.8
20260503173105 62 324 6.0 9.0 0.00 0.00 0.00 35 1018.7
20260503172602 61 150 1.0 3.0 0.00 0.00 0.00 42 1018.9
20260503172100 61 203 4.0 7.0 0.00 0.00 0.00 37 1019.3
20260503171556 61 118 2.0 10.0 0.00 0.00 0.00 38 1019.3
20260503171053 61 110 5.0 11.0 0.00 0.00 0.00 34 1019.3
20260503170549 60 136 1.0 2.0 0.00 0.00 0.00 38 1019.3
20260503150942 54 127 0.0 4.0 0.00 0.00 0.00 45 1020.6
20260503150439 54 108 3.0 4.0 0.00 0.00 0.00 44 1020.7
20260503131332 46 128 0.0 3.0 0.00 0.00 0.00 59 1020.6
20260503130829 46 114 0.0 2.0 0.00 0.00 0.00 59 1020.6
20260503130327 45 99 1.0 2.0 0.00 0.00 0.00 61 1020.8
20260503110720 39 124 0.0 2.0 0.00 0.00 0.00 71 1020.1
20260503110217 39 80 1.0 2.0 0.00 0.00 0.00 71 1020.0
20260503100138 38 123 0.0 0.0 0.00 0.00 0.00 72 1019.4
20260503081532 38 131 0.0 0.0 0.00 0.00 0.00 76 1019.4
20260503081030 38 130 0.0 0.0 0.00 0.00 0.00 76 1019.3
20260503080526 38 130 0.0 0.0 0.00 0.00 0.00 75 1019.3
20260503072459 37 126 0.0 0.0 0.00 0.00 0.00 79 1019.1
20260503071956 37 126 0.0 0.0 0.00 0.00 0.00 78 1019.1
20260503071453 37 126 0.0 0.0 0.00 0.00 0.00 79 1019.2
20260503070949 37 126 0.0 0.0 0.00 0.00 0.00 80 1019.2
20260503070446 36 126 0.0 0.0 0.00 0.00 0.00 80 1019.3
20260503054900 38 126 0.0 0.0 0.00 0.00 0.00 73 1019.5
20260503054356 39 126 0.0 0.0 0.00 0.00 0.00 71 1019.6
20260503053855 39 126 0.0 0.0 0.00 0.00 0.00 71 1019.5
20260503053352 39 126 0.0 0.0 0.00 0.00 0.00 71 1019.5
20260503052848 39 126 0.0 0.0 0.00 0.00 0.00 70 1019.5
20260503052345 39 126 0.0 0.0 0.00 0.00 0.00 71 1019.5
20260503051842 39 126 0.0 0.0 0.00 0.00 0.00 70 1019.6
20260503051338 39 126 0.0 0.0 0.00 0.00 0.00 71 1019.5
20260503050835 39 126 0.0 0.0 0.00 0.00 0.00 70 1019.5
20260503050331 39 126 0.0 0.0 0.00 0.00 0.00 72 1019.6
20260503045829 40 126 0.0 0.0 0.00 0.00 0.00 71 1019.6
20260503045327 40 126 0.0 0.0 0.00 0.00 0.00 69 1019.7
20260503044823 40 126 0.0 0.0 0.00 0.00 0.00 69 1019.5
20260503044320 40 126 0.0 0.0 0.00 0.00 0.00 67 1019.6
20260503043817 40 126 0.0 0.0 0.00 0.00 0.00 69 1019.6
20260503043314 40 126 0.0 0.0 0.00 0.00 0.00 68 1019.4
20260503042810 40 126 0.0 0.0 0.00 0.00 0.00 68 1019.6
20260503042307 40 126 0.0 0.0 0.00 0.00 0.00 68 1019.6
20260503041803 40 126 0.0 0.0 0.00 0.00 0.00 67 1019.6
20260503041300 40 126 0.0 0.0 0.00 0.00 0.00 67 1019.5
20260503040758 40 126 0.0 0.0 0.00 0.00 0.00 67 1019.6
20260503040255 41 126 0.0 0.0 0.00 0.00 0.00 66 1019.6
20260503035752 41 126 0.0 0.0 0.00 0.00 0.00 66 1019.8
20260503035249 41 126 0.0 0.0 0.00 0.00 0.00 65 1019.7
20260503034746 41 126 0.0 0.0 0.00 0.00 0.00 65 1019.8
20260503034243 41 126 0.0 0.0 0.00 0.00 0.00 65 1019.8
20260503033741 41 126 0.0 0.0 0.00 0.00 0.00 65 1019.8
20260503033238 40 126 0.0 0.0 0.00 0.00 0.00 66 1019.8
20260503032736 40 126 0.0 0.0 0.00 0.00 0.00 68 1019.8
20260503032235 40 126 0.0 0.0 0.00 0.00 0.00 69 1019.6
20260503031732 40 126 0.0 0.0 0.00 0.00 0.00 66 1019.8
20260503031230 41 126 0.0 0.0 0.00 0.00 0.00 64 1019.6
20260503030725 41 126 0.0 0.0 0.00 0.00 0.00 64 1019.7
20260503030222 41 126 0.0 0.0 0.00 0.00 0.00 64 1019.6
20260503025719 41 126 0.0 0.0 0.00 0.00 0.00 65 1019.7
20260503025217 41 126 0.0 0.0 0.00 0.00 0.00 65 1019.7
20260503024713 42 126 0.0 0.0 0.00 0.00 0.00 64 1019.5
20260503024211 42 126 0.0 0.0 0.00 0.00 0.00 63 1019.5
20260503023707 42 126 0.0 0.0 0.00 0.00 0.00 63 1019.5
20260503023203 43 126 0.0 0.0 0.00 0.00 0.00 61 1019.5
20260503022659 43 126 0.0 0.0 0.00 0.00 0.00 60 1019.5
20260503022159 44 126 0.0 0.0 0.00 0.00 0.00 59 1019.4
20260503021656 44 125 0.0 0.0 0.00 0.00 0.00 58 1019.6
20260503021153 44 124 0.0 0.0 0.00 0.00 0.00 56 1019.4
20260503020650 45 121 0.0 0.0 0.00 0.00 0.00 56 1019.3
20260503020147 45 130 0.0 1.0 0.00 0.00 0.00 56 1019.5
20260503015644 45 124 0.0 1.0 0.00 0.00 0.00 56 1019.3
20260503015141 45 127 0.0 0.0 0.00 0.00 0.00 56 1019.1
20260503014637 45 132 1.0 2.0 0.00 0.00 0.00 55 1019.1
20260503014135 46 126 0.0 2.0 0.00 0.00 0.00 54 1018.9
20260503013632 46 122 1.0 2.0 0.00 0.00 0.00 54 1019.1
20260503013130 46 125 0.0 1.0 0.00 0.00 0.00 53 1019.0
20260503012627 46 122 0.0 1.0 0.00 0.00 0.00 53 1018.9
20260503012123 46 121 0.0 2.0 0.00 0.00 0.00 52 1018.8
20260503011620 46 134 2.0 3.0 0.00 0.00 0.00 52 1018.7
20260503011117 47 117 1.0 1.0 0.00 0.00 0.00 51 1018.8
20260503010613 47 140 1.0 1.0 0.00 0.00 0.00 50 1018.7
20260503010111 47 127 2.0 2.0 0.00 0.00 0.00 49 1018.6
20260503005608 48 131 1.0 1.0 0.00 0.00 0.00 49 1018.5
20260503005105 48 118 0.0 3.0 0.00 0.00 0.00 48 1018.4
20260503004601 48 125 1.0 2.0 0.00 0.00 0.00 47 1018.5
20260503004100 48 129 1.0 3.0 0.00 0.00 0.00 47 1018.4
20260503003555 48 128 3.0 3.0 0.00 0.00 0.00 47 1018.5
20260503003053 49 117 0.0 2.0 0.00 0.00 0.00 47 1018.3
20260503002550 49 125 2.0 3.0 0.00 0.00 0.00 46 1018.1
20260503002047 49 128 2.0 2.0 0.00 0.00 0.00 44 1018.1
20260503001543 49 124 2.0 3.0 0.00 0.00 0.00 44 1018.2
20260503001040 50 109 0.0 3.0 0.00 0.00 0.00 44 1018.0
20260503000538 50 118 1.0 3.0 0.00 0.00 0.00 43 1017.9
20260503000035 50 133 2.0 6.0 0.00 0.00 0.00 42 1017.9
20260502235531 51 122 3.0 7.0 0.00 0.00 0.00 41 1017.9
20260502235029 52 106 1.0 4.0 0.00 0.00 0.00 41 1017.9
20260502234525 52 91 2.0 4.0 0.00 0.00 0.00 40 1017.9
20260502234024 52 128 2.0 6.0 0.00 0.00 0.00 40 1017.7
20260502233523 52 158 5.0 7.0 0.00 0.00 0.00 39 1017.8
20260502233021 52 90 0.0 1.0 0.00 0.00 0.00 39 1017.8
20260502232517 53 128 1.0 4.0 0.00 0.00 0.00 38 1017.8
20260502232014 55 105 2.0 6.0 0.00 0.00 0.00 36 1017.8
20260502231511 54 125 0.0 1.0 0.00 0.00 0.00 37 1017.8
20260502231009 53 89 4.0 4.0 0.00 0.00 0.00 37 1017.7
20260502230507 52 95 2.0 3.0 0.00 0.00 0.00 40 1017.8
20260502230005 52 114 1.0 3.0 0.00 0.00 0.00 39 1017.7
20260502225500 51 109 2.0 8.0 0.00 0.00 0.00 40 1017.7
20260502224958 52 93 4.0 8.0 0.00 0.00 0.00 40 1017.7
20260502224454 52 105 2.0 9.0 0.00 0.00 0.00 40 1017.7
20260502223951 52 112 3.0 8.0 0.00 0.00 0.00 39 1017.7
20260502223449 53 101 5.0 6.0 0.00 0.00 0.00 38 1017.7
20260502222946 53 86 4.0 7.0 0.00 0.00 0.00 37 1017.4
20260502222444 54 122 1.0 4.0 0.00 0.00 0.00 38 1017.5
20260502221944 54 122 1.0 4.0 0.00 0.00 0.00 37 1017.4
20260502221441 55 90 4.0 7.0 0.00 0.00 0.00 37 1017.3
20260502220938 54 108 3.0 6.0 0.00 0.00 0.00 37 1017.4
20260502220434 55 100 2.0 8.0 0.00 0.00 0.00 37 1017.3
20260502215931 55 118 4.0 6.0 0.00 0.00 0.00 37 1017.3
20260502215428 55 133 2.0 3.0 0.00 0.00 0.00 38 1017.4
20260502214925 56 110 4.0 8.0 0.00 0.00 0.00 35 1017.2
20260502214422 57 50 2.0 7.0 0.00 0.00 0.00 36 1017.1
20260502213919 56 87 4.0 9.0 0.00 0.00 0.00 35 1017.2
20260502213416 54 118 3.0 3.0 0.00 0.00 0.00 38 1017.1
20260502212915 54 124 2.0 3.0 0.00 0.00 0.00 38 1017.1
20260502212413 56 122 0.0 3.0 0.00 0.00 0.00 35 1017.1
20260502211910 56 134 2.0 6.0 0.00 0.00 0.00 35 1017.2
20260502211410 55 90 5.0 7.0 0.00 0.00 0.00 38 1017.1
20260502210908 54 80 4.0 10.0 0.00 0.00 0.00 36 1017.1
20260502210405 53 129 3.0 10.0 0.00 0.00 0.00 37 1017.3
20260502205902 53 112 0.0 4.0 0.00 0.00 0.00 39 1017.2
20260502205358 54 84 4.0 4.0 0.00 0.00 0.00 38 1017.2
20260502204856 55 95 4.0 8.0 0.00 0.00 0.00 36 1017.2
20260502204353 56 128 3.0 8.0 0.00 0.00 0.00 34 1017.1
20260502203850 56 99 4.0 7.0 0.00 0.00 0.00 36 1017.1
20260502203348 56 92 3.0 3.0 0.00 0.00 0.00 36 1017.2
20260502202843 57 118 2.0 6.0 0.00 0.00 0.00 34 1017.2
20260502202341 56 166 5.0 8.0 0.00 0.00 0.00 37 1017.4